Flag for Nepal Weather past 2 weeks in Pokhara, Nepal

Now
68 °F

Passing clouds.


Feels Like: 68 °F
Forecast: 57 / 82 °F
Wind: 5 mph from West

Location: Kathmandu Airport

Current Time: Sep 24, 2014 at 12:33:51 AM

Latest Report: Sep 23, 2014 at 11:35 PM


Visibility: 4 mi

Pressure: 29.95 "Hg

Humidity: 94%

Dew point: 66 °F

Location of PokharaLocation

Historic Weather in Pokhara — Graph

°F

Pokhara temperature yesterday

Maximum temperature yesterday: 79 °F (at 12:35 PM)
Minimum temperature yesterday: 66 °F (at 1:35 AM)
Average temperature yesterday: 72 °F

Past Weeks' High & Low Weather Summary

 TemperatureHumidityPressure
High86 °F (Sep 18, 12:35 PM)100% (Sep 9, 6:35 AM)30.04 "Hg (Sep 9, 6:35 AM)
Low66 °F (Sep 10, 3:35 AM)52% (Sep 18, 12:35 PM)29.77 "Hg (Sep 17, 3:35 PM)
Average72 °F86%29.92 "Hg
* Reported Sep 8 10:35 PM — Sep 23 10:35 PM, Pokhara, Weather by CustomWeather, © 2014

Note: Actual official high and low records may vary slightly from our data, if they occured in-between our weather recording intervals... More about our weather records

Advertising

Pokhara weather history for previous 24 hours

 ConditionsComfort  
Time TempWeatherWind HumidityBarometerVisibility
10:35 PM
Sep 23
70 °FPartly cloudy.No wind88%29.98 "Hg4 mi
8:35 PM70 °FPassing clouds.5 mph88%29.95 "Hg4 mi
7:35 PM72 °FPassing clouds.6 mph83%29.92 "Hg4 mi
6:35 PM72 °FBroken clouds.5 mph83%29.89 "Hg4 mi
4:35 PM75 °FBroken clouds.7 mph78%29.86 "Hg4 mi
3:35 PM75 °FRain. Broken clouds.5 mph74%29.86 "Hg4 mi
2:35 PM77 °FBroken clouds.6 mph69%29.86 "Hg5 mi
1:35 PM77 °FBroken clouds.6 mph69%29.89 "Hg5 mi
12:35 PM79 °FBroken clouds.5 mph65%29.89 "Hg5 mi
11:35 AM75 °FBroken clouds.5 mph74%29.92 "Hg5 mi
10:35 AM75 °FBroken clouds.No wind74%29.92 "Hg4 mi
9:35 AM73 °FBroken clouds.No wind78%29.92 "Hg4 mi
6:35 AM66 °FPartly cloudy.3 mph94%29.89 "Hg4 mi
5:35 AM66 °FPassing clouds.No wind94%29.89 "Hg4 mi
4:35 AM66 °FPartly cloudy.No wind94%29.86 "Hg5 mi
3:35 AM66 °FPartly cloudy.No wind88%29.86 "Hg5 mi
1:35 AM66 °FPartly cloudy.No wind100%29.92 "Hg5 mi
12:35 AM68 °FPartly cloudy.No wind94%29.92 "Hg5 mi
Weather by CustomWeather, © 2014

See weather overviewHow to use our weather pages